Address 0xb9f77e8fe9aef5df3a4c3c465b9d88423e41f41a

 
Txn Hash Method
Block
From
To
Value [Txn Fee]
0x2063de01d880c8911e4a90d2babc11fc00fe92a870993a43279d5e925378ebcbPrimary Sale219698642021-11-30 9:57:4714 mins ago0xb9f77e8fe9aef5df3a4c3c465b9d88423e41f41aOUT 0xbce1b23c7544422f1e2208d29a6a3aa9fabab2500 MATIC0.01097625
0x3ba6987d57d0686f973ed765e09b45edb58728ae1b61bc4e47a03ba5e77a4696Primary Sale219695492021-11-30 9:46:1326 mins ago0xb9f77e8fe9aef5df3a4c3c465b9d88423e41f41aOUT 0xbce1b23c7544422f1e2208d29a6a3aa9fabab2500 MATIC0.01097745
0x04c0a159b03ed1152889ec9982a5864273c89e89189c0c431eaaf05f1bccde18Primary Sale219695092021-11-30 9:44:4927 mins ago0xb9f77e8fe9aef5df3a4c3c465b9d88423e41f41aOUT 0xbce1b23c7544422f1e2208d29a6a3aa9fabab2500 MATIC0.01037142
0xd59d9a20ceaa27696fd9d47b47493a1958ca9a957dbd71e147e207323875e73aPrimary Sale219694942021-11-30 9:44:1928 mins ago0xb9f77e8fe9aef5df3a4c3c465b9d88423e41f41aOUT 0xbce1b23c7544422f1e2208d29a6a3aa9fabab2500 MATIC0.01037142
0x691f349bd63a59b5f444373e1df020d90e0c21130a4b8584a0518ab9f0ffb144Primary Sale219694932021-11-30 9:44:1728 mins ago0xb9f77e8fe9aef5df3a4c3c465b9d88423e41f41aOUT 0xbce1b23c7544422f1e2208d29a6a3aa9fabab2500 MATIC0.01037142
0x743cf02581d0273e73a59c2365916bd661cffcca96aee4363d560f41d58a9210Primary Sale219694712021-11-30 9:43:2929 mins ago0xb9f77e8fe9aef5df3a4c3c465b9d88423e41f41aOUT 0xbce1b23c7544422f1e2208d29a6a3aa9fabab2500 MATIC0.01097745
0x74860a03a818aac548b860de526d3079f52bad7c125d523d00b8466c372251a3Primary Sale219694712021-11-30 9:43:2929 mins ago0xb9f77e8fe9aef5df3a4c3c465b9d88423e41f41aOUT 0xbce1b23c7544422f1e2208d29a6a3aa9fabab2500 MATIC0.01097745
0x82a91500920c126ddd2b2c015b0f0f2de3c03e6727e9be3b0001413976b8d2b2Primary Sale219694712021-11-30 9:43:2929 mins ago0xb9f77e8fe9aef5df3a4c3c465b9d88423e41f41aOUT 0xbce1b23c7544422f1e2208d29a6a3aa9fabab2500 MATIC0.01097745
0xeb1f50d816f55564c89bccf02df6a1a69d5cc0c6a20b8ce80a8067536be6f28cPrimary Sale219694702021-11-30 9:43:2729 mins ago0xb9f77e8fe9aef5df3a4c3c465b9d88423e41f41aOUT 0xbce1b23c7544422f1e2208d29a6a3aa9fabab2500 MATIC0.01097745
0x98f053771f161c932b2d2bf0907c53c0f748e419490a989ecb5d6308d814b7d5Primary Sale219694702021-11-30 9:43:2729 mins ago0xb9f77e8fe9aef5df3a4c3c465b9d88423e41f41aOUT 0xbce1b23c7544422f1e2208d29a6a3aa9fabab2500 MATIC0.01097745
0x809b7ae65dd5eed4f235b018fac82b6dade7302948ced530549a40d715b5dff8Primary Sale219692872021-11-30 9:37:1335 mins ago0xb9f77e8fe9aef5df3a4c3c465b9d88423e41f41aOUT 0xbce1b23c7544422f1e2208d29a6a3aa9fabab2500 MATIC0.01037106
0xb231210d29a880e587f517d9d00d88a398d9bff654bbe31d6f37733a0bb82970Primary Sale219690672021-11-30 9:28:4843 mins ago0xb9f77e8fe9aef5df3a4c3c465b9d88423e41f41aOUT 0xbce1b23c7544422f1e2208d29a6a3aa9fabab2500 MATIC0.01097745
0xee23a8eb61cf77384a9a0156c8e8e67bd02d018f7cff4d91c5becf3e2df616b4Primary Sale219689572021-11-30 9:25:0047 mins ago0xb9f77e8fe9aef5df3a4c3c465b9d88423e41f41aOUT 0xbce1b23c7544422f1e2208d29a6a3aa9fabab2500 MATIC0.01037142
0x42fd42f5ccf944fe256d44edfd4802263f74ab5889476ab8784ccad34177dd64Primary Sale219689572021-11-30 9:25:0047 mins ago0xb9f77e8fe9aef5df3a4c3c465b9d88423e41f41aOUT 0xbce1b23c7544422f1e2208d29a6a3aa9fabab2500 MATIC0.01037142
0x39f1992561448f4c59cc1d46764a3d221d8cec1fbb762a9b7f486f8f2ffdf02dRegister Event219686942021-11-30 9:15:5856 mins ago0xb9f77e8fe9aef5df3a4c3c465b9d88423e41f41aOUT 0x08c2af3f01a36ad9f274cce77f6f77cf9aa1dfc90 MATIC0.018029052901
0x6f5cb93ee0a9b8fd4bd59d6ef3195af7a80abf79b6365ac0dd197ec2963ab0feRegister Event219686892021-11-30 9:15:4856 mins ago0xb9f77e8fe9aef5df3a4c3c465b9d88423e41f41aOUT 0x08c2af3f01a36ad9f274cce77f6f77cf9aa1dfc90 MATIC0.00545680773
0xc835e9915be2434032377115416d8e838b735127d0ed2d4d7dc4f770244ec9f9Primary Sale219684832021-11-30 9:08:141 hr 4 mins ago0xb9f77e8fe9aef5df3a4c3c465b9d88423e41f41aOUT 0xbce1b23c7544422f1e2208d29a6a3aa9fabab2500 MATIC0.01097745
0x5350eb9be221c2e49857c8f69b6ba36372d8b58b76c1923403c2484ed30ff9e3Primary Sale219682822021-11-30 9:01:201 hr 11 mins ago0xb9f77e8fe9aef5df3a4c3c465b9d88423e41f41aOUT 0xbce1b23c7544422f1e2208d29a6a3aa9fabab2500 MATIC0.01097589
0x1245ae466901b4dbc69d7fdfa76b8623fd59f6638ab221ec679534ba0ae0c0b6Primary Sale219681242021-11-30 8:55:521 hr 16 mins ago0xb9f77e8fe9aef5df3a4c3c465b9d88423e41f41aOUT 0xbce1b23c7544422f1e2208d29a6a3aa9fabab2500 MATIC0.01097625
0x9a67e355eead1e341c3e314f162f3c32aa5d7e1184844898625b5a2d4f1c013ePrimary Sale219681242021-11-30 8:55:521 hr 16 mins ago0xb9f77e8fe9aef5df3a4c3c465b9d88423e41f41aOUT 0xbce1b23c7544422f1e2208d29a6a3aa9fabab2500 MATIC0.01097625
0x321d2c61c56828d2625cf2ce5e633dfe401ecec3331843a962e87ed2d64defa4Primary Sale219681242021-11-30 8:55:521 hr 16 mins ago0xb9f77e8fe9aef5df3a4c3c465b9d88423e41f41aOUT 0xbce1b23c7544422f1e2208d29a6a3aa9fabab2500 MATIC0.01097625
0xe1d9b93b62c91455e7a9b3ffcfd9df27461bbe776f046af46a961c6bfad7e531Primary Sale219675392021-11-30 8:35:431 hr 36 mins ago0xb9f77e8fe9aef5df3a4c3c465b9d88423e41f41aOUT 0xbce1b23c7544422f1e2208d29a6a3aa9fabab2500 MATIC0.01097625
0x5a85e9c327246086333c79b28cbb67e24670c12f1c5ffdebff105434e891b315Primary Sale219672882021-11-30 8:26:521 hr 45 mins ago0xb9f77e8fe9aef5df3a4c3c465b9d88423e41f41aOUT 0xbce1b23c7544422f1e2208d29a6a3aa9fabab2500 MATIC0.01097745
0x0892f1be3c654aea2519780dc79a7f93dc5db3a400d7f1152b23e41aa750fdb5Primary Sale219672882021-11-30 8:26:521 hr 45 mins ago0xb9f77e8fe9aef5df3a4c3c465b9d88423e41f41aOUT 0xbce1b23c7544422f1e2208d29a6a3aa9fabab2500 MATIC0.01097745
0x9474da653ccd49e1c83cdd729b857efdd78f589b16a15b93d60406c27512adeePrimary Sale219669772021-11-30 8:16:141 hr 56 mins ago0xb9f77e8fe9aef5df3a4c3c465b9d88423e41f41aOUT 0xbce1b23c7544422f1e2208d29a6a3aa9fabab2500 MATIC0.01097745
[ Download CSV Export 
Parent Txn Hash Block From To Value
Loading

Contract Name:
0 MATIC

Compiler Version
0

Optimization Enabled:
0 MATIC

Other Settings:
-NA-
Block Transaction Gas Used Reward
Age Block Fee Address BC Fee Address Voting Power Jailed Incoming
Block Uncle Number Difficulty Gas Used Reward
Loading
Loading
Make sure to use the "Vote Down" button for any spammy posts, and the "Vote Up" for interesting conversations.